Regional Weather Roundup
Issued by NWS

Home | Current Version | Previous Version | Graphics & Text | Print | Product List | Glossary Off
Versions: 1 2 3 4 5 6 7 8 9 10 11 12 13 14 15 16 17 18 19 20 21 22 23 24 25 26 27 28 29 30 31 32 33 34 35 36 37 38 39 40 41 42 43 44 45 46 47 48 49 50

000
ASUS43 KLMK 030710
RWRKY
KENTUCKY REGIONAL WEATHER ROUNDUP
NATIONAL WEATHER SERVICE LOUISVILLE KY
300 AM EDT WED SEP 03 2014

NOTE "FAIR" INDICATES FEW OR NO CLOUDS BELOW 12,000 FEET
WITH NO SIGNIFICANT WEATHER AND/OR OBSTRUCTIONS TO VISIBILITY.

KYZ001>023-026-027-061>063-070>075-030800-
WESTERN AND SOUTH CENTRAL KENTUCKY

CITY           SKY/WX    TMP DP  RH WIND       PRES   REMARKS
PADUCAH        PTCLDY    70  67  90 W3        29.99F
HENDERSON      MOCLDY    66  64  94 CALM      30.00S
OWENSBORO      NOT AVBL
HOPKINSVILLE   FOG       73  73 100 CALM      30.00F VSB 1/2
BOWLING GREEN  MOCLDY    72  69  90 CALM      30.01F
GLASGOW          N/A     70  70 100 CALM      30.02S FOG
$$

KYZ024-025-028>034-038-045-046-053-030800-
NORTH CENTRAL KENTUCKY

CITY           SKY/WX    TMP DP  RH WIND       PRES   REMARKS
LOUISVILLE/SDF MOCLDY    75  71  87 CALM      30.01S
LOUISVILLE/LOU MOCLDY    70  69  97 CALM      30.02S
FORT KNOX      FOG       69  69  99 CALM      30.01S VSB 1/2
$$

KYZ035>037-039>044-047>052-055>060-089>105-030800-
NORTHEAST KENTUCKY

CITY           SKY/WX    TMP DP  RH WIND       PRES   REMARKS
LEXINGTON      CLOUDY    71  68  90 CALM      30.03S FOG
COVINGTON      FOG       67  65  93 CALM      30.02S VSB 1/4
FRANKFORT      MOCLDY    67  66  97 CALM      30.02S
$$

KYZ054-064>069-076>088-106>120-030800-
SOUTHEAST KENTUCKY

CITY           SKY/WX    TMP DP  RH WIND       PRES   REMARKS
JACKSON        MOCLDY    68  67  96 CALM      30.05S FOG
LONDON         CLOUDY    70  67  90 CALM      30.06S
SOMERSET       MOCLDY    68  68 100 CALM      30.05F
MIDDLESBORO    MOCLDY    70  68  96 CALM      30.07F
MONTICELLO     PTSUNNY   70  69  96 CALM      30.05F
$$



USA.gov is the U.S. government's official web portal to all federal, state and local government web resources and services.